AE0NK Weather Reports


time (UTC)temp
F
wind
direction
speed
knots
gust
knots
rain 1hr
in
rain 24hr
in
rain mn
in
humidity
%
barometer
mb
20260504081824 51 192 0.0 1.7 0.00 0.00 0.00 61 1004.6
20260504081323 51 192 0.0 1.7 0.00 0.00 0.00 61 1004.7
20260504080822 51 192 0.9 3.5 0.00 0.00 0.00 61 1004.6
20260504080317 51 190 0.9 2.6 0.00 0.00 0.00 61 1004.7
20260504070327 53 189 0.0 0.0 0.00 0.00 0.00 59 1005.1
20260504050326 58 259 0.0 0.9 0.00 0.00 0.00 43 1006.6
20260504045815 59 259 0.0 0.0 0.00 0.00 0.00 41 1006.5
20260504045313 59 259 0.0 0.0 0.00 0.00 0.00 41 1006.4
20260504044828 59 259 0.0 1.7 0.00 0.00 0.00 41 1006.6
20260504044326 60 259 0.0 3.5 0.00 0.00 0.00 41 1006.8
20260504043824 60 263 0.9 2.6 0.00 0.00 0.00 40 1006.6
20260504043323 60 263 0.0 0.0 0.00 0.00 0.00 39 1006.6
20260504042821 60 263 0.0 0.0 0.00 0.00 0.00 39 1006.6
20260504042319 60 263 0.0 1.7 0.00 0.00 0.00 39 1006.7
20260504041816 61 263 0.9 1.7 0.00 0.00 0.00 39 1006.7
20260504041314 61 277 0.0 0.0 0.00 0.00 0.00 38 1006.7
20260504040812 61 277 0.0 0.0 0.00 0.00 0.00 38 1006.7
20260504040330 61 277 0.0 0.0 0.00 0.00 0.00 37 1006.8
20260504035826 62 277 0.0 1.7 0.00 0.00 0.00 37 1006.8
20260504035323 62 277 0.0 1.7 0.00 0.00 0.00 37 1006.9
20260504034820 62 202 0.0 0.9 0.00 0.00 0.00 36 1006.9
20260504034338 62 202 0.0 0.9 0.00 0.00 0.00 36 1006.9
20260504033829 62 202 0.9 0.9 0.00 0.00 0.00 36 1007.0
20260504033327 63 202 0.0 0.0 0.00 0.00 0.00 36 1007.0
20260504032825 63 202 0.0 0.9 0.00 0.00 0.00 37 1007.1
20260504032321 63 202 0.0 0.9 0.00 0.00 0.00 36 1007.1
20260504031817 63 202 0.0 1.7 0.00 0.00 0.00 34 1007.1
20260504031315 64 202 0.0 1.7 0.00 0.00 0.00 34 1007.1
20260504030813 64 202 0.0 0.9 0.00 0.00 0.00 34 1007.1
20260504030331 64 202 0.0 0.9 0.00 0.00 0.00 34 1007.0
20260504025826 64 202 0.0 1.7 0.00 0.00 0.00 34 1006.9
20260504025323 64 202 0.9 1.7 0.00 0.00 0.00 33 1007.0
20260504024822 64 202 0.0 1.7 0.00 0.00 0.00 33 1006.9
20260504024318 65 202 0.9 4.3 0.00 0.00 0.00 33 1006.9
20260504023817 65 198 1.7 4.3 0.00 0.00 0.00 34 1006.8
20260504023316 66 311 0.0 0.9 0.00 0.00 0.00 32 1006.7
20260504022812 66 311 0.0 1.7 0.00 0.00 0.00 32 1006.7
20260504022329 66 311 0.0 1.7 0.00 0.00 0.00 32 1006.6
20260504021828 66 310 0.0 0.0 0.00 0.00 0.00 31 1006.6
20260504021326 67 310 0.0 0.0 0.00 0.00 0.00 31 1006.5
20260504020823 67 310 0.0 1.7 0.00 0.00 0.00 31 1006.5
20260504020321 67 310 0.0 1.7 0.00 0.00 0.00 31 1006.5
20260504015813 67 310 0.9 1.7 0.00 0.00 0.00 31 1006.5
20260504015331 67 307 0.0 1.7 0.00 0.00 0.00 31 1006.5
20260504014828 68 306 0.0 3.5 0.00 0.00 0.00 30 1006.4
20260504014325 68 306 0.9 4.3 0.00 0.00 0.00 30 1006.5
20260504013824 68 281 1.7 4.3 0.00 0.00 0.00 30 1006.3
20260504013321 68 319 0.9 1.7 0.00 0.00 0.00 30 1006.3
20260504012818 68 297 0.0 1.7 0.00 0.00 0.00 30 1006.3
20260504012315 68 316 0.0 1.7 0.00 0.00 0.00 30 1006.1
20260504011812 69 311 0.9 3.5 0.00 0.00 0.00 29 1006.1
20260504011330 69 321 0.9 3.5 0.00 0.00 0.00 29 1006.1
20260504010827 70 306 0.0 0.9 0.00 0.00 0.00 29 1006.1
20260504010326 70 306 0.0 1.7 0.00 0.00 0.00 29 1006.1
20260504005820 70 306 0.9 4.3 0.00 0.00 0.00 28 1006.1
20260504005318 70 305 1.7 4.3 0.00 0.00 0.00 28 1006.0
20260504004816 71 238 0.0 0.9 0.00 0.00 0.00 27 1006.0
20260504004313 71 238 0.0 1.7 0.00 0.00 0.00 27 1006.1
20260504003831 72 314 0.0 4.3 0.00 0.00 0.00 26 1005.9
20260504003329 72 291 1.7 7.0 0.00 0.00 0.00 26 1006.0
20260504002828 72 325 0.9 5.2 0.00 0.00 0.00 26 1005.9
20260504002328 73 329 2.6 7.0 0.00 0.00 0.00 25 1005.9
20260504001825 73 296 4.3 8.7 0.00 0.00 0.00 24 1006.0
20260504001323 73 293 3.5 8.7 0.00 0.00 0.00 25 1005.9
20260504000821 73 327 2.6 11.3 0.00 0.00 0.00 25 1005.9
20260504000320 73 327 4.3 11.3 0.00 0.00 0.00 24 1005.9
20260503235815 73 324 5.2 11.3 0.00 0.00 0.00 25 1005.8
20260503235314 73 166 3.5 8.7 0.00 0.00 0.00 25 1005.8
20260503234813 74 317 3.5 9.6 0.00 0.00 0.00 24 1005.8
20260503234313 74 306 4.3 13.9 0.00 0.00 0.00 24 1005.8
20260503233831 74 343 5.2 13.9 0.00 0.00 0.00 24 1005.8
20260503233329 74 313 1.7 11.3 0.00 0.00 0.00 25 1005.8
20260503232829 74 300 3.5 10.4 0.00 0.00 0.00 24 1005.7
20260503232327 74 294 5.2 10.4 0.00 0.00 0.00 23 1005.8
20260503231825 74 46 5.2 12.2 0.00 0.00 0.00 24 1005.8
20260503231325 74 351 5.2 12.2 0.00 0.00 0.00 25 1005.8
20260503230822 74 306 4.3 9.6 0.00 0.00 0.00 25 1005.7
20260503230320 74 315 2.6 7.8 0.00 0.00 0.00 25 1005.7
20260503225815 74 245 2.6 10.4 0.00 0.00 0.00 25 1005.8
20260503225313 75 316 3.5 12.2 0.00 0.00 0.00 25 1005.9
20260503224813 75 338 6.1 12.2 0.00 0.00 0.00 25 1005.9
20260503224312 75 355 4.3 12.2 0.00 0.00 0.00 27 1005.9
20260503223829 75 283 7.0 12.2 0.00 0.00 0.00 25 1005.9
20260503223327 75 343 6.1 12.2 0.00 0.00 0.00 25 1005.8
20260503222827 75 287 6.1 12.2 0.00 0.00 0.00 27 1005.7
20260503222323 75 302 2.6 10.4 0.00 0.00 0.00 27 1005.7
20260503221821 75 307 5.2 11.3 0.00 0.00 0.00 25 1005.7
20260503221320 75 297 5.2 11.3 0.00 0.00 0.00 26 1005.6
20260503220816 76 318 2.6 10.4 0.00 0.00 0.00 28 1005.5
20260503220314 76 239 3.5 11.3 0.00 0.00 0.00 26 1005.6
20260503215830 76 305 4.3 11.3 0.00 0.00 0.00 26 1005.6
20260503215328 76 337 2.6 8.7 0.00 0.00 0.00 26 1005.6
20260503214826 76 279 1.7 11.3 0.00 0.00 0.00 31 1005.7
20260503214325 76 188 3.5 11.3 0.00 0.00 0.00 27 1005.7
20260503213824 76 259 2.6 10.4 0.00 0.00 0.00 29 1005.6
20260503213323 76 326 4.3 10.4 0.00 0.00 0.00 32 1005.6
20260503212821 75 167 2.6 7.0 0.00 0.00 0.00 37 1005.7
20260503212318 75 274 3.5 7.0 0.00 0.00 0.00 38 1005.7
20260503211816 75 144 2.6 7.8 0.00 0.00 0.00 39 1005.8
20260503211314 74 348 3.5 8.7 0.00 0.00 0.00 38 1005.8
20260503210814 74 213 4.3 8.7 0.00 0.00 0.00 39 1005.9
20260503210326 74 194 4.3 10.4 0.00 0.00 0.00 38 1006.0
20260503205822 75 281 5.2 10.4 0.00 0.00 0.00 36 1006.1
20260503205321 76 176 1.7 7.0 0.00 0.00 0.00 28 1006.2
20260503204818 75 223 1.7 15.6 0.00 0.00 0.00 29 1006.1
20260503204317 75 319 5.2 15.6 0.00 0.00 0.00 27 1006.1
20260503203816 76 221 5.2 13.0 0.00 0.00 0.00 27 1006.1
20260503203313 75 283 5.2 9.6 0.00 0.00 0.00 27 1006.2
20260503202812 75 326 4.3 11.3 0.00 0.00 0.00 29 1006.3
20260503202312 75 355 5.2 12.2 0.00 0.00 0.00 27 1006.3
20260503201830 76 312 5.2 12.2 0.00 0.00 0.00 28 1006.4
20260503201328 75 350 4.3 11.3 0.00 0.00 0.00 30 1006.3
20260503200824 75 298 3.5 10.4 0.00 0.00 0.00 30 1006.3
20260503200320 75 294 5.2 9.6 0.00 0.00 0.00 30 1006.1
20260503195815 75 355 4.3 11.3 0.00 0.00 0.00 33 1006.4
20260503195312 75 290 4.3 11.3 0.00 0.00 0.00 33 1006.2
20260503194830 75 284 5.2 8.7 0.00 0.00 0.00 33 1006.3
20260503194327 75 161 2.6 8.7 0.00 0.00 0.00 35 1006.3
20260503193825 74 207 1.7 7.0 0.00 0.00 0.00 36 1006.4
20260503193324 74 215 2.6 9.6 0.00 0.00 0.00 35 1006.5
20260503192822 74 221 5.2 9.6 0.00 0.00 0.00 35 1006.6
20260503192321 73 201 2.6 9.6 0.00 0.00 0.00 36 1006.7
20260503191820 73 199 2.6 9.6 0.00 0.00 0.00 38 1006.8
20260503191318 72 355 4.3 9.6 0.00 0.00 0.00 36 1006.9
20260503190814 73 351 2.6 13.9 0.00 0.00 0.00 37 1007.0
20260503190312 72 5 2.6 13.9 0.00 0.00 0.00 37 1007.0
20260503185825 72 306 3.5 9.6 0.00 0.00 0.00 39 1007.0
20260503185324 72 209 6.1 12.2 0.00 0.00 0.00 36 1007.1
20260503184822 72 308 4.3 12.2 0.00 0.00 0.00 38 1007.3
20260503184321 72 200 4.3 8.7 0.00 0.00 0.00 38 1007.2
20260503183820 72 233 2.6 10.4 0.00 0.00 0.00 38 1007.3
20260503183318 71 166 5.2 10.4 0.00 0.00 0.00 38 1007.3
20260503182817 70 355 3.5 8.7 0.00 0.00 0.00 38 1007.4
20260503182316 70 202 1.7 8.7 0.00 0.00 0.00 38 1007.5
20260503181814 70 344 5.2 13.0 0.00 0.00 0.00 38 1007.4
20260503181313 70 333 4.3 13.0 0.00 0.00 0.00 38 1007.6
20260503180811 71 214 2.6 10.4 0.00 0.00 0.00 38 1007.7
20260503180329 70 306 2.6 7.0 0.00 0.00 0.00 40 1007.8
20260503175823 70 225 2.6 13.0 0.00 0.00 0.00 39 1007.9
20260503175318 69 300 2.6 13.0 0.00 0.00 0.00 42 1007.8
20260503174815 69 305 5.2 8.7 0.00 0.00 0.00 41 1008.0
20260503174314 68 180 3.5 7.8 0.00 0.00 0.00 39 1008.1
20260503173830 68 268 3.5 11.3 0.00 0.00 0.00 41 1008.2
20260503173327 67 184 4.3 11.3 0.00 0.00 0.00 40 1008.3
20260503172824 67 355 2.6 9.6 0.00 0.00 0.00 41 1008.3
20260503172322 67 305 3.5 9.6 0.00 0.00 0.00 40 1008.3
20260503171820 67 317 4.3 9.6 0.00 0.00 0.00 42 1008.4
20260503171318 66 268 6.1 12.2 0.00 0.00 0.00 41 1008.3
20260503170815 66 195 4.3 9.6 0.00 0.00 0.00 42 1008.4
20260503170311 66 294 4.3 10.4 0.00 0.00 0.00 41 1008.4
20260503150813 60 227 4.3 7.8 0.00 0.00 0.00 47 1010.0
20260503150330 59 247 2.6 8.7 0.00 0.00 0.00 49 1010.0
20260503131320 52 185 4.3 8.7 0.00 0.00 0.00 55 1011.3
20260503130812 51 207 4.3 7.8 0.00 0.00 0.00 55 1011.5
20260503130329 51 219 3.5 6.1 0.00 0.00 0.00 55 1011.8
20260503110811 51 215 5.2 8.7 0.00 0.00 0.00 56 1012.0
20260503110328 51 200 4.3 7.0 0.00 0.00 0.00 57 1012.1